USA 40 R/B DEB, 23392

Orbit data source: Space-Track

USA 40 R/B DEB, 23392 is space debris originally from a launch on Tue, 08 Aug 1989 UTC launched from the Air Force Eastern Test Range (AFETR). Debris objects in space refer to the collection of defunct objects orbiting the Earth. Examples of debris include non-operational satellites, rocket bodies, and fragments generated from explosions, collisions, or faulty payload assembly.

Loading next visibility...
Identifier
23392, 1989-061BQ
Orbit
Active
Country
Flag of USUS
Related business
Manufacturer
Unknown
Mission
Spacecraft
Bus & Motor
Unknown
Mass
Unknown
Launch date (UTC)
1989-08-08 (37 years ago)
Launch vehicle
Unknown
Launch site
Air Force Eastern Test Range (AFETR)
Object type
Payload
Rocket body
Debris
Shape & HBR
Unknown shape, 0.1 m
Radar Cross Section
Small (<0.1 m²)

Expand to show TLE details & history
Last TLE update: 5 months ago

TLE from 5 months ago
0 USA 40 R/B DEB
1 23392U 89061BQ  25319.04827259  .00074194  00000-0  35349-1 0  9990
2 23392  56.9799  85.8501 2877273 172.6318 192.8543  9.21118802215010
Epoch: 2025-11-15T01:09Z
TLE epoch observation values (Epoch: 2025-11-15T01:09:30.751Z)
Latitude
Longitude
14.08896°
Altitude
5,959.958 km
Speed
4.813 km/s
True Right ascension
05h 43m 24s
True Declination
0° 00' 00"
Sunlit
Object was in daylight at epoch
Visualization orbit readout
Latitude
Unknown
Longitude
Unknown
Altitude
Unknown
Speed
Unknown
Apparent Right ascension
Unknown
Apparent Declination
Unknown
Sunlit
N/A
Visualization observer readout
Local Sidereal Time
19:17:03
Azimuth
Unknown
Elevation
Unknown
Doppler factor
Unknown
Orbital elements
Apogee altitude
6,000.402 km
Perigee altitude
468.728 km
Semi-major axis
9,612.702 km
Eccentricity
0.28773
Inclination
56.9799°
RAAN
85.8501°
Arg. of periapsis
172.6318°
True anomaly
187.44079°
Mean anomaly
192.8543°
Eccentric anomaly
189.99346°
Mean motion
2.3029 °/min
Orbital period
156.32 mins
BSTAR
0.035349
Loading maneuver chart data...
Computing Atmospheric mass density...
Loading historical data...
Loading historical data...
Loading historical data...
Loading historical data...
Loading historical data...
Loading historical data...
Loading historical data...

Documentation

Showing up to 5 results
|